Location: Earls Croome
(52.0667°N, 2.2000°W)
Time: 20:37:40
(UTC+00:00)

STARLINK-80 - Pass Details

Date: 17 November 2019
Orbit: 492 x 497 km, 53.0° (Epoch: 09 December)

Event Time Altitude Azimuth Distance (km) Brightness Sun altitude
Exits shadow 05:31:57 28° 220° (SW) 964 4.5 -18.1°
Maximum altitude 05:33:44 55° 155° (SSE) 605 3.9 -17.8°
Drops below altitude 10° 05:37:30 10° 77° (ENE) 1,704 7.2 -17.3°
Sets 05:39:43 0° 73° (ENE) 2,590 8.2 -16.9°
